Fort Lewis, WA
on Tuesday, November 20, 2012

Tuesday
Previous Day Next Day
Daily Summary
 ActualAverage (KOLM)Record (KOLM)
Temperature
Mean Temperature °F 42°F  
Max Temperature 53°F 49°F 63°F (1987)
Min Temperature 39°F 36°F 14°F (1977)
Degree Days
Heating Degree Days 19 23  
Month to date heating degree days 411  
Since 1 July heating degree days 1205  
Cooling Degree Days 0 0  
Month to date cooling degree days 0  
Year to date cooling degree days 106  
Moisture
Dew Point 42°F   
Average Humidity 92    
Maximum Humidity 100    
Minimum Humidity 70    
Precipitation
Precipitation 0.11 in 0.31 in 3.41 in (1959)
Month to date precipitation 5.62  
Year to date precipitation 39.53  
Wind
Wind Speed 4 mph   
Max Wind Speed 18 mph   
Max Gust Speed 29 mph   
Visibility 6 miles   
Events Fog , Rain   

Key: T is trace of precipitation, MM is missing value
Source: NWS Daily Summary
Time(PST)TemperatureDew PointHumidity Pressure Visibility Wind DirectionWind SpeedGust SpeedPrecipitationEvents Conditions
12:58 AM 44.6°F 44.2°F 99% 29.69 in 9.0 miles SE 4.6 mph - N/A   Scattered Clouds
1:13 AM 42.8°F 42.8°F 100% 29.68 in 2.5 miles SSE 4.6 mph - N/A   Scattered Clouds
1:18 AM 44.6°F 42.8°F 93% 29.69 in 1.5 miles SSE 4.6 mph - N/A   Mostly Cloudy
1:23 AM 44.6°F 44.6°F 100% 29.69 in 1.8 miles SSE 5.8 mph - N/A   Mostly Cloudy
1:28 AM 44.6°F 44.6°F 100% 29.69 in 3.0 miles SSE 5.8 mph - N/A   Mostly Cloudy
1:58 AM 45.7°F 45.3°F 99% 29.68 in 10.0 miles SSE 5.8 mph - N/A   Mostly Cloudy
2:58 AM 46.4°F 45.0°F 95% 29.67 in 10.0 miles East 3.5 mph - N/A   Mostly Cloudy
3:58 AM 45.7°F 44.8°F 97% 29.66 in 10.0 miles SSE 3.5 mph - 0.01 in   Clear
4:58 AM 44.1°F 43.7°F 99% 29.64 in 10.0 miles Calm Calm - N/A   Partly Cloudy
5:23 AM 44.6°F 42.8°F 93% 29.65 in 2.5 miles SSE 2.3 mph - N/A   Scattered Clouds
5:28 AM 42.8°F 42.8°F 100% 29.65 in 1.2 miles SSE 2.3 mph - N/A   Scattered Clouds
5:33 AM 42.8°F 42.8°F 100% 29.65 in 1.0 miles SSW 2.3 mph - N/A   Mostly Cloudy
5:38 AM 42.8°F 42.8°F 100% 29.65 in 1.2 miles SW 1.2 mph - N/A   Mostly Cloudy
5:43 AM 42.8°F 42.8°F 100% 29.65 in 1.8 miles West 1.2 mph - N/A   Scattered Clouds
5:48 AM 42.8°F 42.8°F 100% 29.64 in 1.5 miles Calm Calm - N/A   Scattered Clouds
5:53 AM 42.8°F 42.8°F 100% 29.64 in 0.8 miles Calm Calm - N/A   Partly Cloudy
5:58 AM 42.8°F 42.8°F 100% 29.66 in 0.5 miles ENE 2.3 mph - N/A Fog Fog
6:03 AM 42.8°F 42.8°F 100% 29.64 in 0.8 miles Calm Calm - N/A   Clear
6:08 AM 42.8°F 42.8°F 100% 29.64 in 0.8 miles ENE 2.3 mph - N/A   Clear
6:13 AM 42.8°F 42.8°F 100% 29.64 in 1.0 miles ENE 2.3 mph - N/A   Clear
6:18 AM 42.8°F 41.0°F 93% 29.64 in 1.8 miles NE 2.3 mph - N/A   Clear
6:23 AM 42.8°F 41.0°F 93% 29.63 in 2.5 miles Calm Calm - N/A   Clear
6:28 AM 41.0°F 41.0°F 100% 29.63 in 1.2 miles NE 1.2 mph - N/A   Clear
6:33 AM 41.0°F 41.0°F 100% 29.63 in 0.8 miles Calm Calm - N/A   Clear
6:38 AM 41.0°F 39.2°F 93% 29.63 in 0.5 miles East 1.2 mph - N/A Fog Fog
6:43 AM 41.0°F 41.0°F 100% 29.62 in 0.8 miles NE 2.3 mph - N/A   Clear
6:48 AM 41.0°F 41.0°F 100% 29.62 in 0.8 miles ENE 2.3 mph - N/A   Clear
6:58 AM 39.4°F 39.2°F 99% 29.64 in 0.8 miles ENE 2.3 mph - N/A   Clear
7:08 AM 41.0°F 41.0°F 100% 29.61 in 0.5 miles NE 2.3 mph - N/A Fog Fog
7:13 AM 41.0°F 41.0°F 100% 29.61 in 0.5 miles NNE 1.2 mph - N/A Fog Fog
7:18 AM 39.2°F 39.2°F 100% 29.61 in 0.8 miles ENE 2.3 mph - N/A   Clear
7:23 AM 39.2°F 39.2°F 100% 29.60 in 0.5 miles SE 1.2 mph - N/A Fog Fog
7:33 AM 39.2°F 39.2°F 100% 29.59 in 0.5 miles Calm Calm - N/A Fog Fog
7:43 AM 39.2°F 39.2°F 100% 29.59 in 0.5 miles Calm Calm - N/A Fog Fog
7:52 AM 39.2°F 39.2°F 100% 29.59 in 0.8 miles South 1.2 mph - N/A   Mostly Cloudy
7:58 AM 39.7°F 39.4°F 99% 29.60 in 6.0 miles NNE 1.2 mph - N/A   Mostly Cloudy
8:08 AM 39.2°F 39.2°F 100% 29.58 in 7.0 miles East 1.2 mph - N/A   Mostly Cloudy
8:21 AM 41.0°F 39.2°F 93% 29.57 in 7.0 miles NE 3.5 mph - N/A   Mostly Cloudy
8:58 AM 42.1°F 41.9°F 99% 29.58 in 10.0 miles SE 1.2 mph - N/A   Mostly Cloudy
9:39 AM 42.8°F 42.8°F 100% 29.53 in 10.0 miles Calm Calm - N/A   Mostly Cloudy
9:58 AM 43.9°F 43.7°F 99% 29.55 in 9.0 miles Calm Calm - 0.00 in Rain Light Rain
10:58 AM 46.0°F 45.1°F 97% 29.57 in 8.0 miles ESE 2.3 mph - 0.10 in Rain Light Rain
11:08 AM 46.4°F 44.6°F 93% 29.55 in 10.0 miles SE 2.3 mph - N/A   Overcast
11:33 AM 46.4°F 44.6°F 93% 29.55 in 10.0 miles SSE 4.6 mph - N/A   Overcast
11:58 AM 49.1°F 45.9°F 89% 29.56 in 10.0 miles Variable 4.6 mph - 0.00 in   Overcast
12:13 PM 51.8°F 48.2°F 88% 29.55 in 10.0 miles Variable 5.8 mph - N/A   Mostly Cloudy
12:51 PM 53.6°F 46.4°F 77% 29.57 in 10.0 miles SSE 11.5 mph - N/A   Light Drizzle
12:58 PM 52.7°F 46.4°F 79% 29.57 in 10.0 miles SSE 18.4 mph 28.8 mph 0.00 in   Light Drizzle
1:06 PM 51.8°F 46.4°F 82% 29.57 in 10.0 miles South 17.3 mph 28.8 mph N/A   Mostly Cloudy
1:58 PM 51.6°F 44.6°F 77% 29.62 in 10.0 miles South 10.4 mph - 0.00 in   Mostly Cloudy
2:08 PM 51.8°F 44.6°F 76% 29.61 in 10.0 miles SSW 6.9 mph - N/A   Overcast
2:33 PM 51.8°F 44.6°F 76% 29.62 in 10.0 miles South 10.4 mph 18.4 mph N/A   Mostly Cloudy
2:58 PM 52.0°F 42.6°F 70% 29.65 in 10.0 miles SSE 12.7 mph - N/A   Mostly Cloudy
3:13 PM 53.6°F 44.6°F 72% 29.64 in 10.0 miles SSE 10.4 mph - N/A   Mostly Cloudy
3:18 PM 53.6°F 44.6°F 72% 29.65 in 10.0 miles SSE 12.7 mph - N/A   Mostly Cloudy
3:23 PM 51.8°F 44.6°F 76% 29.65 in 10.0 miles SSE 11.5 mph - N/A   Mostly Cloudy
3:28 PM 51.8°F 44.6°F 76% 29.65 in 10.0 miles SSE 12.7 mph - N/A   Mostly Cloudy
3:58 PM 50.0°F 42.6°F 76% 29.67 in 10.0 miles SSE 11.5 mph - N/A   Partly Cloudy
4:58 PM 48.2°F 42.6°F 81% 29.68 in 10.0 miles SE 10.4 mph - N/A   Mostly Cloudy
5:58 PM 46.8°F 40.6°F 79% 29.67 in 10.0 miles SE 9.2 mph - N/A   Partly Cloudy
6:58 PM 48.2°F 40.5°F 75% 29.68 in 10.0 miles SE 9.2 mph - N/A   Mostly Cloudy
7:58 PM 46.4°F 40.5°F 80% 29.68 in 10.0 miles SE 5.8 mph - N/A   Overcast
8:58 PM 42.8°F 39.2°F 87% 29.66 in 10.0 miles East 4.6 mph - N/A   Scattered Clouds
9:58 PM 42.8°F 40.3°F 91% 29.64 in 10.0 miles Calm Calm - N/A   Mostly Cloudy
10:58 PM 43.9°F 37.9°F 80% 29.61 in 10.0 miles East 3.5 mph - N/A   Mostly Cloudy
11:58 PM 44.1°F 38.7°F 81% 29.57 in 10.0 miles SE 3.5 mph - N/A   Partly Cloudy
Moon Phase
Nov. 20 Nov. 28 Dec. 06 Dec. 13 Dec. 20
Sunrise:07:21 AM (PST) Moon Rise:12:44 PM (PST)11/20
Sunset:04:29 PM (PST) Moon Set:No Moon Set/

Copyright © 2014 The Weather Underground, Inc.